GPS BIIF-6 (PRN 06)

Last updated on Sun Dec 07 2025 00:03:19 GMT+0000 (Coordinated Universal Time)

1 39741U 14026A 25340.51079527 -.00000079 00000+0 00000+0 0 9992 2 39741 56.5859 339.0187 0039011 318.3290 41.3876 2.00561644 84677
UTC large
Height (km)
Speed (km/s)
/
Latitude / Longitude
Inclination (degrees)
Orbital Period (minutes)
Azimuth
Elevation
Range (km)
Doppler Factor

Next 0 passes for location: London (51.5072 / 0.1276)

Sorry there are no passes over London.